Voltar ao catálogo

COSMOS 1217 DEB

LostHEO
NORAD 41117·DEBRIS·🇷🇺 Russia

Lançado Oct 24, 1980 de Plesetsk Cosmodrome

Loading…

Próximas Passagens (próximas 24 horas)

TLE

ObsoletoSource: Space-Track

Época: Jan 22, 2025, 06:43 UTC

1 41117U 80085N   25022.28035137  .00000355  00000-0  00000+0 0  9997
2 41117  68.0313  36.6451 6609282 312.9702   7.8472  1.99439097 81276

Acompanhe COSMOS 1217 DEB em tempo real com AllMySat

Download on the App Store